Weather History for Jaffrey, NH

Change the Weather History Date:

Tuesday, January 22, 2013

  Actual Average Record
Temperature  
Mean Temperature 12 °F -  
Max Temperature 16 °F 25 °F 43 °F (1997)
Min Temperature 1 °F 8 °F -14 °F (2005)
Degree Days  
Heating Degree Days 54    
Moisture  
Dew Point 5 °F    
Average Humidity 73    
Maximum Humidity 93    
Minimum Humidity 43    
Precipitation  
Precipitation 0.00 in - - ()
Sea Level Pressure  
Sea Level Pressure 29.83 in    
Wind  
Wind Speed 2 mph (WSW)    
Max Wind Speed 13 mph    
Max Gust Speed 23 mph    
Visibility 7 miles    
Events Snow    
Averages and records for this station are not official NWS values.
T = Trace of Precipitation, MM = Missing Value Source: NWS Daily Summary

Daily Weather History Graph

Daily Weather History Graph

Search for Another Location

Airport:

Trip Planner

Search our weather history database for the weather conditions in past years. The results will help you decide how hot, cold, wet, or windy it might be!

Date:

Astronomy

Jan. 22, 2013 Rise Set
Actual Time 7:11 AM EST 4:48 PM EST
Civil Twilight 6:40 AM EST 5:19 PM EST
Nautical Twilight 6:06 AM EST 5:53 PM EST
Astronomical Twilight 5:32 AM EST 6:27 PM EST
Moon 1:08 PM EST 3:31 AM EST
Length of Visible Light 10h 38m
Length of Day
9h 36m
Waxing Gibbous, 82% of the Moon is Illuminated
Jan 22
Waxing Gibbous
Jan 26
Full
Feb 3
Last Quarter
Feb 10
New
Feb 17
First Quarter

Hourly Weather History & Observations

Time (EST) Temp. Windchill Dew Point Humidity Pressure Visibility Wind Dir Wind Speed Gust Speed Precip Events Conditions
12:22 AM 14.0 °F - 10.4 °F 86% 29.72 in 10.0 mi Calm Calm - N/A   Mostly Cloudy
12:52 AM 12.9 °F - 10.9 °F 92% 29.78 in 10.0 mi Calm Calm - N/A   Mostly Cloudy
1:52 AM 12.9 °F - 10.0 °F 88% 29.78 in 4.0 mi Calm Calm - 0.00 in Snow Light Snow
2:11 AM 12.2 °F - 8.6 °F 85% 29.70 in 3.0 mi Calm Calm - 0.00 in Snow Light Snow
2:26 AM 12.2 °F - 8.6 °F 85% 29.70 in 2.5 mi Calm Calm - 0.00 in Snow Light Snow
2:33 AM 10.4 °F - 8.6 °F 92% 29.70 in 3.0 mi Calm Calm - 0.00 in Snow Light Snow
2:41 AM 12.2 °F - 8.6 °F 85% 29.70 in 2.5 mi Calm Calm - 0.00 in Snow Light Snow
2:52 AM 12.9 °F - 9.0 °F 84% 29.78 in 1.8 mi Calm Calm - 0.00 in Snow Light Snow
3:00 AM 12.2 °F - 10.4 °F 92% 29.70 in 2.5 mi Calm Calm - 0.00 in Snow Light Snow
3:07 AM 12.2 °F - 10.4 °F 92% 29.70 in 6.0 mi Calm Calm - 0.00 in Snow Light Snow
3:32 AM 12.2 °F 6.1 °F 10.4 °F 92% 29.70 in 1.8 mi South 3.5 mph - 0.00 in Snow Light Snow
3:49 AM 14.0 °F - 12.2 °F 93% 29.70 in 2.0 mi Calm Calm - 0.00 in Snow Light Snow
3:52 AM 14.0 °F - 10.9 °F 88% 29.77 in 1.8 mi Calm Calm - 0.00 in Snow Light Snow
3:56 AM 14.0 °F - 10.4 °F 86% 29.70 in 2.0 mi Calm Calm - 0.00 in Snow Light Snow
4:06 AM 14.0 °F - 10.4 °F 86% 29.70 in 5.0 mi Calm Calm - 0.00 in   Overcast
4:13 AM 14.0 °F 8.2 °F 10.4 °F 86% 29.70 in 8.0 mi South 3.5 mph - 0.00 in   Overcast
4:37 AM 14.0 °F 8.2 °F 10.4 °F 86% 29.70 in 2.0 mi South 3.5 mph - 0.00 in Snow Light Snow
5:08 AM 15.8 °F 8.6 °F 10.4 °F 79% 29.71 in 10.0 mi SW 4.6 mph - 0.00 in   Scattered Clouds
5:52 AM 14.0 °F - 8.1 °F 77% 29.79 in 10.0 mi Calm Calm - 0.00 in   Clear
6:52 AM 12.9 °F 6.9 °F 7.0 °F 77% 29.82 in 10.0 mi Variable 3.5 mph - N/A   Clear
7:27 AM 12.2 °F - 8.6 °F 85% 29.76 in 10.0 mi Calm Calm - N/A   Mostly Cloudy
7:52 AM 14.0 °F - 8.1 °F 77% 29.84 in 10.0 mi Calm Calm - N/A   Scattered Clouds
8:36 AM 15.8 °F - 8.6 °F 73% 29.78 in 10.0 mi Calm Calm - N/A   Mostly Cloudy
8:52 AM 15.1 °F 6.4 °F 6.1 °F 68% 29.86 in 10.0 mi Variable 5.8 mph - N/A   Mostly Cloudy
9:52 AM 14.0 °F - 3.9 °F 64% 29.88 in 10.0 mi Calm Calm - N/A   Overcast
10:44 AM 15.8 °F 5.1 °F 1.4 °F 53% 29.80 in 10.0 mi West 8.1 mph 23.0 mph N/A   Scattered Clouds
10:52 AM 15.1 °F 2.5 °F 1.9 °F 56% 29.88 in 10.0 mi West 10.4 mph 18.4 mph N/A   Scattered Clouds
11:52 AM 15.1 °F 3.3 °F 1.0 °F 54% 29.88 in 10.0 mi WSW 9.2 mph 23.0 mph N/A   Mostly Cloudy
12:52 PM 15.1 °F 1.8 °F -2.0 °F 47% 29.87 in 10.0 mi WNW 11.5 mph 18.4 mph N/A   Overcast
1:52 PM 16.0 °F 8.8 °F -2.9 °F 43% 29.88 in 10.0 mi Variable 4.6 mph 16.1 mph N/A   Overcast
2:52 PM 15.1 °F 1.1 °F -4.0 °F 43% 29.91 in 10.0 mi West 12.7 mph 17.3 mph N/A   Overcast
3:52 PM 14.0 °F 2.9 °F -5.1 °F 43% 29.94 in 10.0 mi WNW 8.1 mph - 0.00 in   Scattered Clouds
4:52 PM 12.0 °F 4.1 °F -5.1 °F 46% 29.96 in 10.0 mi Variable 4.6 mph - N/A   Clear
5:52 PM 10.9 °F - -5.1 °F 49% 29.99 in 10.0 mi Calm Calm - N/A   Clear
6:52 PM 10.0 °F 1.8 °F -4.0 °F 53% 30.02 in 10.0 mi West 4.6 mph - N/A   Overcast
7:52 PM 10.0 °F -0.9 °F -0.9 °F 61% 30.03 in 10.0 mi WNW 6.9 mph - 0.00 in   Overcast
8:52 PM 8.1 °F 1.4 °F -0.0 °F 70% 30.04 in 10.0 mi West 3.5 mph - N/A   Clear
9:52 PM 8.1 °F 1.4 °F -0.9 °F 67% 30.05 in 10.0 mi West 3.5 mph - N/A   Partly Cloudy
10:52 PM 7.0 °F - -8.0 °F 51% 30.06 in 10.0 mi Calm Calm - N/A   Clear
11:52 PM 1.0 °F - -8.0 °F 66% 30.06 in 10.0 mi Calm Calm - N/A   Clear